Lamar, CO

5:21 PM MST on December 07, 2019 (GMT -0700)
Lamar Municipal

Weather History for KLAA - October, 2019

Change the Weather History Date:

Tuesday, October 22, 2019

  Actual Average Record
Temperature  
Mean Temperature 46 °F 50 °F  
Max Temperature 69 °F 68 °F 89 °F (1927)
Min Temperature 23 °F 33 °F 19 °F (1996)
Degree Days  
Heating Degree Days 19 15  
Month to date heating degree days 272 233  
Since 1 July heating degree days 278 316  
Cooling Degree Days 0 0  
Month to date cooling degree days 1 8  
Year to date cooling degree days 1406 1120  
Moisture  
Dew Point 16 °F    
Average Humidity 37    
Maximum Humidity 61    
Minimum Humidity 13    
Precipitation  
Precipitation 0.00 in 0.03 in 0.92 in (2015)
Month to date precipitation 0.01 0.60  
Year to date precipitation 7.76 14.22  
Sea Level Pressure  
Sea Level Pressure 30.05 in    
Wind  
Wind Speed 8 mph (SW)    
Max Wind Speed 18 mph    
Max Gust Speed 24 mph    
Visibility 10 miles    
Events      
T = Trace of Precipitation, MM = Missing Value Source: NWS Daily Summary

Daily Weather History Graph

Daily Weather History Graph

Search for Another Location

Airport or City:

Astronomy

Oct. 22, 2019 Rise Set
Actual Time 7:06 AM MDT 6:03 PM MDT
Civil Twilight 6:39 AM MDT 6:30 PM MDT
Nautical Twilight 6:08 AM MDT 7:01 PM MDT
Astronomical Twilight 5:38 AM MDT 7:31 PM MDT
Moon 12:26 AM MDT (10/22) 3:07 PM MDT (10/22)
Length of Visible Light 11h 51m
Length of Day
10h 57m
Last Quarter, 36% of the Moon is Illuminated
Oct 22
Last Quarter
Oct 27
New
Nov 4
First Quarter
Nov 12
Full
Nov 19
Last Quarter

Hourly Weather History & Observations

Time (MDT) Temp. Windchill Dew Point Humidity Pressure Visibility Wind Dir Wind Speed Gust Speed Precip Events Conditions
12:53 AM 37.0 °F 34.5 °F 16.0 °F 42% 30.14 in 10.0 mi West 3.5 mph - N/A   Scattered Clouds
1:53 AM 35.1 °F 30.1 °F 16.0 °F 46% 30.16 in 10.0 mi WNW 5.8 mph - N/A   Scattered Clouds
3:53 AM 30.9 °F 25.2 °F 19.0 °F 61% 30.15 in 10.0 mi SW 5.8 mph - N/A   Clear
4:53 AM 30.0 °F 21.1 °F 17.1 °F 59% 30.17 in 10.0 mi SSW 10.4 mph - N/A   Clear
5:53 AM 28.0 °F 20.0 °F 14.0 °F 56% 30.20 in 10.0 mi SW 8.1 mph - N/A   Clear
6:53 AM 27.0 °F 19.5 °F 14.0 °F 58% 30.22 in 10.0 mi WSW 6.9 mph - N/A   Clear
7:53 AM 32.0 °F 25.6 °F 15.1 °F 50% 30.23 in 10.0 mi West 6.9 mph - N/A   Clear
8:53 AM 39.9 °F 33.9 °F 18.0 °F 41% 30.23 in 10.0 mi West 9.2 mph - N/A   Clear
9:53 AM 50.0 °F - 19.9 °F 31% 30.21 in 10.0 mi WSW 6.9 mph - N/A   Clear
10:53 AM 57.9 °F - 21.9 °F 25% 30.17 in 10.0 mi South 8.1 mph - N/A   Clear
11:53 AM 62.1 °F - 18.0 °F 18% 30.12 in 10.0 mi SSW 13.8 mph 18.4 mph N/A   Clear
12:53 PM 64.9 °F - 16.0 °F 15% 30.06 in 10.0 mi SW 10.4 mph 17.3 mph N/A   Clear
1:53 PM 66.9 °F - 16.0 °F 14% 30.01 in 10.0 mi WSW 12.7 mph 21.9 mph N/A   Clear
2:53 PM 66.9 °F - 16.0 °F 14% 29.97 in 10.0 mi SW 8.1 mph 24.2 mph N/A   Clear
3:53 PM 68.0 °F - 16.0 °F 14% 29.95 in 10.0 mi WSW 6.9 mph 19.6 mph N/A   Clear
4:53 PM 68.0 °F - 16.0 °F 14% 29.94 in 10.0 mi SW 5.8 mph - N/A   Clear
5:53 PM 61.0 °F - 15.1 °F 17% 29.93 in 10.0 mi South 6.9 mph - N/A   Clear
6:53 PM 55.0 °F - 15.1 °F 21% 29.94 in 10.0 mi SE 10.4 mph - N/A   Clear
7:53 PM 53.1 °F - 15.1 °F 22% 29.91 in 10.0 mi SSE 11.5 mph - N/A   Clear
8:53 PM 44.1 °F 41.5 °F 12.9 °F 28% 29.90 in 10.0 mi South 4.6 mph - N/A   Clear
9:53 PM 52.0 °F - 14.0 °F 22% 29.84 in 10.0 mi SSE 8.1 mph - N/A   Clear
10:53 PM 41.0 °F 37.1 °F 18.0 °F 40% 29.82 in 10.0 mi NNE 5.8 mph - N/A   Clear
11:53 PM 30.9 °F 26.2 °F 12.9 °F 47% 29.83 in 10.0 mi SW 4.6 mph - N/A   Clear